Location: Astronomy Club of Akron Observatory
(40.9700°N, 81.5606°W)
Time: 08:06:43
(UTC-04:00)

ISS - Visible Passes

Search period start: 25 April 2019 00:00
Search period end: 05 May 2019 00:00
Orbit: 408 x 410 km, 51.6° (Epoch: 25 April)

Date Brightness Start Highest point End Pass type
(mag) Time Alt. Az. Time Alt. Az. Time Alt. Az.
26 Apr -0.9 05:42:44 10° SSE 05:43:44 11° SE 05:44:44 10° ESE visible
28 Apr -2.1 05:35:26 10° SSW 05:38:19 28° SE 05:41:12 10° ENE visible
29 Apr -1.4 04:46:24 13° SSE 04:47:38 15° SE 04:49:40 10° E visible
30 Apr -3.7 05:30:24 15° SW 05:33:01 75° SE 05:36:19 10° ENE visible
01 May -2.9 04:41:33 34° SSE 04:42:12 38° SE 04:45:19 10° ENE visible
02 May -1.4 03:52:37 17° ESE 03:52:37 17° ESE 03:54:01 10° E visible
02 May -3.1 05:25:21 15° W 05:27:50 45° NNW 05:31:02 10° NE visible
03 May -3.9 04:36:21 59° WSW 04:36:52 79° NW 04:40:12 10° NE visible
04 May -2.1 03:47:17 31° ENE 03:47:17 31° ENE 03:49:14 10° ENE visible
04 May -2.0 05:20:01 10° W 05:22:45 24° NNW 05:25:33 10° NE visible
